Weather History for Monticello, NY

Change the Weather History Date:

Thursday, June 13, 2013

  Actual Average Record
Temperature  
Mean Temperature 52 °F -  
Max Temperature 55 °F 70 °F 89 °F (2005)
Min Temperature 50 °F 51 °F 48 °F (2004)
Degree Days  
Heating Degree Days 12    
Growing Degree Days 2 (Base 50)    
Moisture  
Dew Point 49 °F    
Average Humidity 84    
Maximum Humidity 88    
Minimum Humidity 77    
Precipitation  
Precipitation 0.01 in - - ()
Sea Level Pressure  
Sea Level Pressure 29.70 in    
Wind  
Wind Speed 6 mph (East)    
Max Wind Speed 20 mph    
Max Gust Speed 34 mph    
Visibility 7 miles    
Events      
Averages and records for this station are not official NWS values.
T = Trace of Precipitation, MM = Missing Value Source: NWS Daily Summary

Daily Weather History Graph

Daily Weather History Graph

Search for Another Location

Airport:

Trip Planner

Search our weather history database for the weather conditions in past years. The results will help you decide how hot, cold, wet, or windy it might be!

Date:

Astronomy

Jun. 13, 2013 Rise Set
Actual Time 5:24 AM EDT 8:34 PM EDT
Civil Twilight 4:49 AM EDT 9:08 PM EDT
Nautical Twilight 4:06 AM EDT 9:52 PM EDT
Astronomical Twilight 3:13 AM EDT 10:45 PM EDT
Moon 10:01 AM EDT (6/13) 11:36 PM EDT (6/13)
Length of Visible Light 16h 18m
Length of Day
15h 10m
Waxing Crescent, 21% of the Moon is Illuminated
Jun 13
Waxing Crescent
Jun 16
First Quarter
Jun 23
Full
Jun 30
Last Quarter
Jul 8
New

Hourly Weather History & Observations

Time (EDT) Temp. Dew Point Humidity Pressure Visibility Wind Dir Wind Speed Gust Speed Precip Events Conditions
12:15 AM 53.6 °F 46.4 °F 77% 29.89 in 10.0 mi Calm Calm - N/A   Clear
12:35 AM 51.8 °F 46.4 °F 82% 29.88 in 10.0 mi Calm Calm - N/A   Clear
12:55 AM 51.8 °F 46.4 °F 82% 29.88 in 10.0 mi Calm Calm - N/A   Mostly Cloudy
1:15 AM 51.8 °F 46.4 °F 82% 29.87 in 10.0 mi Calm Calm - N/A   Overcast
1:35 AM 51.8 °F 46.4 °F 82% 29.86 in 10.0 mi Calm Calm - N/A   Mostly Cloudy
1:55 AM 51.8 °F 46.4 °F 82% 29.86 in 10.0 mi NNE 3.5 mph - N/A   Partly Cloudy
2:15 AM 50.0 °F 46.4 °F 87% 29.85 in 10.0 mi NNE 4.6 mph - N/A   Clear
2:35 AM 51.8 °F 46.4 °F 82% 29.84 in 10.0 mi Calm Calm - N/A   Partly Cloudy
2:55 AM 50.0 °F 46.4 °F 87% 29.83 in 10.0 mi Calm Calm - N/A   Mostly Cloudy
3:15 AM 51.8 °F 46.4 °F 82% 29.84 in 10.0 mi Calm Calm - N/A   Scattered Clouds
3:35 AM 51.8 °F 46.4 °F 82% 29.83 in 10.0 mi Calm Calm - N/A   Overcast
3:55 AM 51.8 °F 46.4 °F 82% 29.82 in 10.0 mi Calm Calm - N/A   Overcast
4:15 AM 51.8 °F 46.4 °F 82% 29.82 in 10.0 mi Calm Calm - N/A   Overcast
4:35 AM 53.6 °F 46.4 °F 77% 29.82 in 10.0 mi Calm Calm - N/A   Overcast
4:55 AM 51.8 °F 46.4 °F 82% 29.82 in 10.0 mi Calm Calm - N/A   Overcast
5:15 AM 53.6 °F 46.4 °F 77% 29.83 in 10.0 mi Calm Calm - N/A   Overcast
5:35 AM 53.6 °F 48.2 °F 82% 29.83 in 10.0 mi Calm Calm - N/A   Overcast
5:55 AM 53.6 °F 48.2 °F 82% 29.83 in 5.0 mi Calm Calm - 0.01 in   Overcast
6:15 AM 53.6 °F 48.2 °F 82% 29.82 in 2.5 mi Calm Calm - N/A   Overcast
6:35 AM 53.6 °F 48.2 °F 82% 29.80 in 3.0 mi East 5.8 mph - N/A   Overcast
6:55 AM 53.6 °F 48.2 °F 82% 29.77 in 6.0 mi East 8.1 mph - N/A   Overcast
7:15 AM 53.6 °F 50.0 °F 88% 29.78 in 10.0 mi ESE 6.9 mph - N/A   Overcast
7:35 AM 55.4 °F 50.0 °F 82% 29.76 in 9.0 mi East 6.9 mph - N/A   Overcast
7:55 AM 55.4 °F 50.0 °F 82% 29.77 in 6.0 mi East 4.6 mph - N/A   Overcast
8:15 AM 55.4 °F 50.0 °F 82% 29.78 in 2.5 mi NE 3.5 mph - N/A   Overcast
8:35 AM 53.6 °F 50.0 °F 88% 29.76 in 5.0 mi East 8.1 mph - N/A   Overcast
8:55 AM 53.6 °F 50.0 °F 88% 29.76 in 5.0 mi ESE 6.9 mph - N/A   Overcast
9:15 AM 55.4 °F 50.0 °F 82% 29.74 in 3.0 mi ESE 10.4 mph - N/A   Overcast
9:35 AM 55.4 °F 50.0 °F 82% 29.74 in 4.0 mi ESE 8.1 mph - N/A   Overcast
9:55 AM 55.4 °F 51.8 °F 88% 29.73 in 2.0 mi East 6.9 mph - N/A   Overcast
10:15 AM 55.4 °F 51.8 °F 88% 29.71 in 5.0 mi East 8.1 mph - N/A   Overcast
10:35 AM 55.4 °F 51.8 °F 88% 29.70 in 5.0 mi East 9.2 mph - N/A   Overcast
10:55 AM 55.4 °F 51.8 °F 88% 29.70 in 8.0 mi ESE 11.5 mph - N/A   Overcast
11:15 AM 55.4 °F 51.8 °F 88% 29.69 in 10.0 mi ESE 9.2 mph - N/A   Overcast
11:35 AM 55.4 °F 51.8 °F 88% 29.66 in 10.0 mi East 10.4 mph - N/A   Overcast
11:55 AM 55.4 °F 51.8 °F 88% 29.66 in 10.0 mi East 10.4 mph - N/A   Overcast
12:15 PM 55.4 °F 51.8 °F 88% 29.66 in 10.0 mi ESE 12.7 mph 21.9 mph N/A   Overcast
12:35 PM 55.4 °F 51.8 °F 88% 29.65 in 10.0 mi ESE 13.8 mph - N/A   Overcast
12:55 PM 55.4 °F 51.8 °F 88% 29.63 in 10.0 mi ESE 15.0 mph 20.7 mph N/A   Overcast
1:15 PM 55.4 °F 51.8 °F 88% 29.62 in 10.0 mi East 15.0 mph 21.9 mph N/A   Overcast
1:35 PM 55.4 °F 51.8 °F 88% 29.62 in 10.0 mi East 15.0 mph 23.0 mph N/A   Overcast
1:55 PM 55.4 °F 51.8 °F 88% 29.62 in 8.0 mi ESE 12.7 mph 20.7 mph N/A   Overcast
2:15 PM 55.4 °F 51.8 °F 88% 29.61 in 5.0 mi ESE 15.0 mph 21.9 mph N/A   Overcast
2:35 PM 55.4 °F 50.0 °F 82% 29.61 in 6.0 mi East 12.7 mph 23.0 mph N/A   Overcast
2:55 PM 55.4 °F 50.0 °F 82% 29.61 in 2.5 mi East 13.8 mph - N/A   Overcast
3:15 PM 55.4 °F 50.0 °F 82% 29.61 in 3.0 mi East 13.8 mph 18.4 mph N/A   Overcast
3:35 PM 55.4 °F 50.0 °F 82% 29.60 in 4.0 mi East 13.8 mph - N/A   Overcast
3:55 PM 55.4 °F 51.8 °F 88% 29.59 in 4.0 mi East 12.7 mph - N/A   Overcast
4:15 PM 55.4 °F 50.0 °F 82% 29.59 in 4.0 mi East 15.0 mph - N/A   Overcast
4:35 PM 53.6 °F 50.0 °F 88% 29.58 in 4.0 mi East 16.1 mph 21.9 mph N/A   Overcast
4:55 PM 53.6 °F 50.0 °F 88% 29.58 in 3.0 mi East 10.4 mph 19.6 mph N/A   Overcast
5:15 PM 53.6 °F 50.0 °F 88% 29.58 in 4.0 mi East 15.0 mph 19.6 mph N/A   Overcast
5:35 PM 53.6 °F 50.0 °F 88% 29.58 in 4.0 mi East 15.0 mph 19.6 mph N/A   Overcast
5:55 PM 53.6 °F 48.2 °F 82% 29.58 in 9.0 mi East 13.8 mph 20.7 mph N/A   Overcast
6:15 PM 53.6 °F 48.2 °F 82% 29.57 in 10.0 mi East 16.1 mph 23.0 mph N/A   Overcast
6:35 PM 53.6 °F 48.2 °F 82% 29.57 in 6.0 mi ENE 15.0 mph 21.9 mph N/A   Overcast
6:55 PM 53.6 °F 48.2 °F 82% 29.57 in 9.0 mi ENE 19.6 mph 25.3 mph N/A   Overcast
7:15 PM 53.6 °F 48.2 °F 82% 29.56 in 10.0 mi ENE 19.6 mph 27.6 mph N/A   Overcast
7:35 PM 53.6 °F 48.2 °F 82% 29.58 in 10.0 mi East 19.6 mph 34.5 mph N/A   Overcast
7:55 PM 53.6 °F 48.2 °F 82% 29.58 in 2.0 mi ENE 15.0 mph 24.2 mph N/A   Overcast
8:15 PM 51.8 °F 48.2 °F 88% 29.60 in 2.5 mi ENE 15.0 mph 23.0 mph N/A   Overcast
8:35 PM 51.8 °F 46.4 °F 82% 29.60 in 2.5 mi ENE 19.6 mph 25.3 mph N/A   Overcast
8:55 PM 51.8 °F 46.4 °F 82% 29.60 in 4.0 mi ENE 19.6 mph 24.2 mph N/A   Overcast
9:15 PM 51.8 °F 46.4 °F 82% 29.60 in 5.0 mi ENE 17.3 mph 21.9 mph N/A   Overcast
9:35 PM 51.8 °F 46.4 °F 82% 29.61 in 6.0 mi ENE 15.0 mph 25.3 mph N/A   Overcast
9:55 PM 51.8 °F 46.4 °F 82% 29.62 in 9.0 mi NE 11.5 mph - N/A   Overcast
10:15 PM 51.8 °F 46.4 °F 82% 29.63 in 8.0 mi NE 11.5 mph - N/A   Overcast
10:35 PM 51.8 °F 46.4 °F 82% 29.63 in 7.0 mi ENE 12.7 mph 18.4 mph N/A   Overcast
10:55 PM 51.8 °F 46.4 °F 82% 29.64 in 8.0 mi NE 9.2 mph 18.4 mph N/A   Overcast
11:15 PM 51.8 °F 46.4 °F 82% 29.64 in 10.0 mi NNE 5.8 mph - N/A   Overcast
11:35 PM 51.8 °F 46.4 °F 82% 29.65 in 10.0 mi NNE 8.1 mph - N/A   Overcast
11:55 PM 51.8 °F 46.4 °F 82% 29.65 in 10.0 mi NNE 5.8 mph - N/A   Overcast